(°C)
-20°
-20°
-20°
-19°
-19°
-19°
-18°
(°C)
-27°
-27°
-27°
-26°
-26°
-25°
-25°
NNE
NE
NNE
NNE
NNE
NNE
NNE
(km/h)
16-36
16-34
15-33
14-33
14-33
13-32
12-30
(mm)
0
0
0
0
0
0
0
(%)
0
0
0
0
0
0
0

Elevación del sol

/ -43.4°
sun-icon
UV 0
09:44
14:30
(3°)
10:31
13:37

METAR a 64.6°N 40.72°E (ULAA)

Hora Condiciones Temperatura/
Punto de condensación
Viento Visibilidad Tiempo Nubes Presión Cambiar Bruto
VFR °C / °C 40º variable 360º to 070º 4kt >10km - Clouds and Visibility OK 1018 No Significant change. Runway 08: Frozen ridges, 26-50% contamination with 5mm, friction coefficient 0.48. ULAA 041830Z 04002MPS 360V070 CAVOK M20/M22 Q1018 R08/950548 NOSIG RMK QFE762/1017
VFR °C / °C 50º variable 020º to 080º 6kt >10km - Clouds and Visibility OK 1018 No Significant change. Runway 08: Frozen ridges, 26-50% contamination with 5mm, friction coefficient 0.48. ULAA 041800Z 05003MPS 020V080 CAVOK M20/M22 Q1018 R08/950548 NOSIG RMK QFE762/1017
VFR °C / °C 50º 6kt >10km - Clouds and Visibility OK 1017 No Significant change. Runway 08: Frozen ridges, 26-50% contamination with 5mm, friction coefficient 0.48. ULAA 041730Z 05003MPS CAVOK M20/M22 Q1017 R08/950548 NOSIG RMK QFE762/1016
VFR °C / °C 40º variable 010º to 100º 4kt >10km - Clouds and Visibility OK 1017 No Significant change. Runway 08: Frozen ridges, 26-50% contamination with 5mm, friction coefficient 0.48. ULAA 041700Z 04002MPS 010V100 CAVOK M20/M22 Q1017 R08/950548 NOSIG RMK QFE762/1016
VFR °C / °C 50º 4kt >10km - Clouds and Visibility OK 1017 No Significant change. Runway 08: Frozen ridges, 26-50% contamination with 5mm, friction coefficient 0.48. ULAA 041630Z 05002MPS CAVOK M19/M21 Q1017 R08/950548 NOSIG RMK QFE762/1016
VFR °C / °C 50º 6kt >10km - Clouds and Visibility OK 1017 No Significant change. Runway 08: Frozen ridges, 26-50% contamination with 5mm, friction coefficient 0.48. ULAA 041600Z 05003MPS CAVOK M19/M22 Q1017 R08/950548 NOSIG RMK QFE762/1016
VFR °C / °C 50º 4kt >10km - Clouds and Visibility OK 1017 No Significant change. Runway 08: Frozen ridges, 26-50% contamination with 5mm, friction coefficient 0.48. ULAA 041530Z 05002MPS CAVOK M19/M21 Q1017 R08/950548 NOSIG RMK QFE762/1016
VFR °C / °C 50º 6kt >10km - Clouds and Visibility OK 1017 No Significant change. Runway 08: Frozen ridges, 26-50% contamination with 5mm, friction coefficient 0.48. ULAA 041500Z 05003MPS CAVOK M19/M21 Q1017 R08/950548 NOSIG RMK QFE761/1015
VFR °C / °C 50º variable 020º to 160º 6kt >10km - Clouds and Visibility OK 1016 No Significant change. Runway 08: Frozen ridges, 26-50% contamination with 5mm, friction coefficient 0.48. ULAA 041430Z 05003MPS 020V160 CAVOK M19/M21 Q1016 R08/950548 NOSIG RMK QFE761/1015
VFR °C / °C 50º 6kt >10km - Clouds and Visibility OK 1016 No Significant change. Runway 08: Frozen ridges, 26-50% contamination with 5mm, friction coefficient 0.48. ULAA 041400Z 05003MPS CAVOK M19/M21 Q1016 R08/950548 NOSIG RMK QFE761/1015
VFR °C / °C 50º variable 020º to 080º 6kt >10km - Clouds and Visibility OK 1016 No Significant change. Runway 08: Frozen ridges, 26-50% contamination with 5mm, friction coefficient 0.48. ULAA 041330Z 05003MPS 020V080 CAVOK M19/M22 Q1016 R08/950548 NOSIG RMK QFE761/1015
VFR °C / °C 50º 6kt >10km - Clouds and Visibility OK 1016 No Significant change. Runway 08: Frozen ridges, 26-50% contamination with 5mm, friction coefficient 0.48. ULAA 041300Z 05003MPS CAVOK M20/M22 Q1016 R08/950548 NOSIG RMK QFE761/1014
VFR °C / °C 50º 6kt >10km - Clouds and Visibility OK 1016 No Significant change. Runway 08: Frozen ridges, 26-50% contamination with 5mm, friction coefficient 0.48. ULAA 041230Z 05003MPS CAVOK M20/M22 Q1016 R08/950548 NOSIG RMK QFE761/1014
VFR °C / °C 50º 6kt >10km - Clouds and Visibility OK 1016 No Significant change. Runway 08: Frozen ridges, 26-50% contamination with 5mm, friction coefficient 0.48. ULAA 041200Z 05003MPS CAVOK M20/M22 Q1016 R08/950548 NOSIG RMK QFE761/1014
VFR °C / °C 50º 6kt >10km - Clouds and Visibility OK 1015 No Significant change. Runway 08: Frozen ridges, 26-50% contamination with 5mm, friction coefficient 0.48. ULAA 041130Z 05003MPS CAVOK M19/M21 Q1015 R08/950548 NOSIG RMK QFE761/1014
VFR °C / °C 50º 6kt >10km - Clouds and Visibility OK 1015 No Significant change. Runway 08: Frozen ridges, 26-50% contamination with 5mm, friction coefficient 0.48. ULAA 041100Z 05003MPS CAVOK M19/M21 Q1015 R08/950548 NOSIG RMK QFE761/1014
VFR °C / °C 40º variable 010º to 070º 6kt >10km - Clouds and Visibility OK 1015 No Significant change. Runway 08: Frozen ridges, 26-50% contamination with 5mm, friction coefficient 0.48. ULAA 041030Z 04003MPS 010V070 CAVOK M19/M21 Q1015 R08/950548 NOSIG RMK QFE760/1014
VFR °C / °C 50º 6kt >10km - Clouds and Visibility OK 1015 No Significant change. Runway 08: Frozen ridges, 26-50% contamination with 5mm, friction coefficient 0.48. ULAA 041000Z 05003MPS CAVOK M18/M21 Q1015 R08/950548 NOSIG RMK QFE760/1014
VFR °C / °C 60º 6kt >10km - Clouds and Visibility OK 1015 No Significant change. Runway 08: Frozen ridges, 26-50% contamination with 5mm, friction coefficient 0.48. ULAA 040930Z 06003MPS CAVOK M19/M21 Q1015 R08/950548 NOSIG RMK QFE760/1014
VFR °C / °C 50º variable 020º to 090º 6kt >10km - Clouds and Visibility OK 1015 No Significant change. Runway 08: Frozen ridges, 26-50% contamination with 5mm, friction coefficient 0.48. ULAA 040900Z 05003MPS 020V090 CAVOK M19/M21 Q1015 R08/950548 NOSIG RMK QFE760/1014
VFR °C / °C 50º 6kt >10km - Clouds and Visibility OK 1015 No Significant change. Runway 08: Frozen ridges, 26-50% contamination with 5mm, friction coefficient 0.48. ULAA 040830Z 05003MPS CAVOK M19/M22 Q1015 R08/950548 NOSIG RMK QFE760/1014
VFR °C / °C 50º 6kt >10km - Clouds and Visibility OK 1015 No Significant change. Runway 08: Frozen ridges, 26-50% contamination with 5mm, friction coefficient 0.48. ULAA 040800Z 05003MPS CAVOK M19/M22 Q1015 R08/950548 NOSIG RMK QFE760/1014
VFR °C / °C 50º 6kt >10km - Clouds and Visibility OK 1015 No Significant change. Runway 08: Frozen ridges, 26-50% contamination with 5mm, friction coefficient 0.48. ULAA 040730Z 05003MPS CAVOK M20/M22 Q1015 R08/950548 NOSIG RMK QFE760/1013
VFR °C / °C 40º 6kt >10km - Clouds and Visibility OK 1014 No Significant change. Runway 08: Frozen ridges, 26-50% contamination with 5mm, friction coefficient 0.48. ULAA 040700Z 04003MPS CAVOK M20/M22 Q1014 R08/950548 NOSIG RMK QFE760/1013

VFR

°C / °C

[Más]
Viento 40º variable 360º to 070º 4kt
Visibilidad >10km
Tiempo -
Nubes Clouds and Visibility OK
Presión 1018
Cambiar No Significant change. Runway 08: Frozen ridges, 26-50% contamination with 5mm, friction coefficient 0.48.
Bruto ULAA 041830Z 04002MPS 360V070 CAVOK M20/M22 Q1018 R08/950548 NOSIG RMK QFE762/1017

VFR

°C / °C

[Más]
Viento 50º variable 020º to 080º 6kt
Visibilidad >10km
Tiempo -
Nubes Clouds and Visibility OK
Presión 1018
Cambiar No Significant change. Runway 08: Frozen ridges, 26-50% contamination with 5mm, friction coefficient 0.48.
Bruto ULAA 041800Z 05003MPS 020V080 CAVOK M20/M22 Q1018 R08/950548 NOSIG RMK QFE762/1017

VFR

°C / °C

[Más]
Viento 50º 6kt
Visibilidad >10km
Tiempo -
Nubes Clouds and Visibility OK
Presión 1017
Cambiar No Significant change. Runway 08: Frozen ridges, 26-50% contamination with 5mm, friction coefficient 0.48.
Bruto ULAA 041730Z 05003MPS CAVOK M20/M22 Q1017 R08/950548 NOSIG RMK QFE762/1016

VFR

°C / °C

[Más]
Viento 40º variable 010º to 100º 4kt
Visibilidad >10km
Tiempo -
Nubes Clouds and Visibility OK
Presión 1017
Cambiar No Significant change. Runway 08: Frozen ridges, 26-50% contamination with 5mm, friction coefficient 0.48.
Bruto ULAA 041700Z 04002MPS 010V100 CAVOK M20/M22 Q1017 R08/950548 NOSIG RMK QFE762/1016

VFR

°C / °C

[Más]
Viento 50º 4kt
Visibilidad >10km
Tiempo -
Nubes Clouds and Visibility OK
Presión 1017
Cambiar No Significant change. Runway 08: Frozen ridges, 26-50% contamination with 5mm, friction coefficient 0.48.
Bruto ULAA 041630Z 05002MPS CAVOK M19/M21 Q1017 R08/950548 NOSIG RMK QFE762/1016

VFR

°C / °C

[Más]
Viento 50º 6kt
Visibilidad >10km
Tiempo -
Nubes Clouds and Visibility OK
Presión 1017
Cambiar No Significant change. Runway 08: Frozen ridges, 26-50% contamination with 5mm, friction coefficient 0.48.
Bruto ULAA 041600Z 05003MPS CAVOK M19/M22 Q1017 R08/950548 NOSIG RMK QFE762/1016

VFR

°C / °C

[Más]
Viento 50º 4kt
Visibilidad >10km
Tiempo -
Nubes Clouds and Visibility OK
Presión 1017
Cambiar No Significant change. Runway 08: Frozen ridges, 26-50% contamination with 5mm, friction coefficient 0.48.
Bruto ULAA 041530Z 05002MPS CAVOK M19/M21 Q1017 R08/950548 NOSIG RMK QFE762/1016

VFR

°C / °C

[Más]
Viento 50º 6kt
Visibilidad >10km
Tiempo -
Nubes Clouds and Visibility OK
Presión 1017
Cambiar No Significant change. Runway 08: Frozen ridges, 26-50% contamination with 5mm, friction coefficient 0.48.
Bruto ULAA 041500Z 05003MPS CAVOK M19/M21 Q1017 R08/950548 NOSIG RMK QFE761/1015

VFR

°C / °C

[Más]
Viento 50º variable 020º to 160º 6kt
Visibilidad >10km
Tiempo -
Nubes Clouds and Visibility OK
Presión 1016
Cambiar No Significant change. Runway 08: Frozen ridges, 26-50% contamination with 5mm, friction coefficient 0.48.
Bruto ULAA 041430Z 05003MPS 020V160 CAVOK M19/M21 Q1016 R08/950548 NOSIG RMK QFE761/1015

VFR

°C / °C

[Más]
Viento 50º 6kt
Visibilidad >10km
Tiempo -
Nubes Clouds and Visibility OK
Presión 1016
Cambiar No Significant change. Runway 08: Frozen ridges, 26-50% contamination with 5mm, friction coefficient 0.48.
Bruto ULAA 041400Z 05003MPS CAVOK M19/M21 Q1016 R08/950548 NOSIG RMK QFE761/1015

VFR

°C / °C

[Más]
Viento 50º variable 020º to 080º 6kt
Visibilidad >10km
Tiempo -
Nubes Clouds and Visibility OK
Presión 1016
Cambiar No Significant change. Runway 08: Frozen ridges, 26-50% contamination with 5mm, friction coefficient 0.48.
Bruto ULAA 041330Z 05003MPS 020V080 CAVOK M19/M22 Q1016 R08/950548 NOSIG RMK QFE761/1015

VFR

°C / °C

[Más]
Viento 50º 6kt
Visibilidad >10km
Tiempo -
Nubes Clouds and Visibility OK
Presión 1016
Cambiar No Significant change. Runway 08: Frozen ridges, 26-50% contamination with 5mm, friction coefficient 0.48.
Bruto ULAA 041300Z 05003MPS CAVOK M20/M22 Q1016 R08/950548 NOSIG RMK QFE761/1014

VFR

°C / °C

[Más]
Viento 50º 6kt
Visibilidad >10km
Tiempo -
Nubes Clouds and Visibility OK
Presión 1016
Cambiar No Significant change. Runway 08: Frozen ridges, 26-50% contamination with 5mm, friction coefficient 0.48.
Bruto ULAA 041230Z 05003MPS CAVOK M20/M22 Q1016 R08/950548 NOSIG RMK QFE761/1014

VFR

°C / °C

[Más]
Viento 50º 6kt
Visibilidad >10km
Tiempo -
Nubes Clouds and Visibility OK
Presión 1016
Cambiar No Significant change. Runway 08: Frozen ridges, 26-50% contamination with 5mm, friction coefficient 0.48.
Bruto ULAA 041200Z 05003MPS CAVOK M20/M22 Q1016 R08/950548 NOSIG RMK QFE761/1014

VFR

°C / °C

[Más]
Viento 50º 6kt
Visibilidad >10km
Tiempo -
Nubes Clouds and Visibility OK
Presión 1015
Cambiar No Significant change. Runway 08: Frozen ridges, 26-50% contamination with 5mm, friction coefficient 0.48.
Bruto ULAA 041130Z 05003MPS CAVOK M19/M21 Q1015 R08/950548 NOSIG RMK QFE761/1014

VFR

°C / °C

[Más]
Viento 50º 6kt
Visibilidad >10km
Tiempo -
Nubes Clouds and Visibility OK
Presión 1015
Cambiar No Significant change. Runway 08: Frozen ridges, 26-50% contamination with 5mm, friction coefficient 0.48.
Bruto ULAA 041100Z 05003MPS CAVOK M19/M21 Q1015 R08/950548 NOSIG RMK QFE761/1014

VFR

°C / °C

[Más]
Viento 40º variable 010º to 070º 6kt
Visibilidad >10km
Tiempo -
Nubes Clouds and Visibility OK
Presión 1015
Cambiar No Significant change. Runway 08: Frozen ridges, 26-50% contamination with 5mm, friction coefficient 0.48.
Bruto ULAA 041030Z 04003MPS 010V070 CAVOK M19/M21 Q1015 R08/950548 NOSIG RMK QFE760/1014

VFR

°C / °C

[Más]
Viento 50º 6kt
Visibilidad >10km
Tiempo -
Nubes Clouds and Visibility OK
Presión 1015
Cambiar No Significant change. Runway 08: Frozen ridges, 26-50% contamination with 5mm, friction coefficient 0.48.
Bruto ULAA 041000Z 05003MPS CAVOK M18/M21 Q1015 R08/950548 NOSIG RMK QFE760/1014

VFR

°C / °C

[Más]
Viento 60º 6kt
Visibilidad >10km
Tiempo -
Nubes Clouds and Visibility OK
Presión 1015
Cambiar No Significant change. Runway 08: Frozen ridges, 26-50% contamination with 5mm, friction coefficient 0.48.
Bruto ULAA 040930Z 06003MPS CAVOK M19/M21 Q1015 R08/950548 NOSIG RMK QFE760/1014

VFR

°C / °C

[Más]
Viento 50º variable 020º to 090º 6kt
Visibilidad >10km
Tiempo -
Nubes Clouds and Visibility OK
Presión 1015
Cambiar No Significant change. Runway 08: Frozen ridges, 26-50% contamination with 5mm, friction coefficient 0.48.
Bruto ULAA 040900Z 05003MPS 020V090 CAVOK M19/M21 Q1015 R08/950548 NOSIG RMK QFE760/1014

VFR

°C / °C

[Más]
Viento 50º 6kt
Visibilidad >10km
Tiempo -
Nubes Clouds and Visibility OK
Presión 1015
Cambiar No Significant change. Runway 08: Frozen ridges, 26-50% contamination with 5mm, friction coefficient 0.48.
Bruto ULAA 040830Z 05003MPS CAVOK M19/M22 Q1015 R08/950548 NOSIG RMK QFE760/1014

VFR

°C / °C

[Más]
Viento 50º 6kt
Visibilidad >10km
Tiempo -
Nubes Clouds and Visibility OK
Presión 1015
Cambiar No Significant change. Runway 08: Frozen ridges, 26-50% contamination with 5mm, friction coefficient 0.48.
Bruto ULAA 040800Z 05003MPS CAVOK M19/M22 Q1015 R08/950548 NOSIG RMK QFE760/1014

VFR

°C / °C

[Más]
Viento 50º 6kt
Visibilidad >10km
Tiempo -
Nubes Clouds and Visibility OK
Presión 1015
Cambiar No Significant change. Runway 08: Frozen ridges, 26-50% contamination with 5mm, friction coefficient 0.48.
Bruto ULAA 040730Z 05003MPS CAVOK M20/M22 Q1015 R08/950548 NOSIG RMK QFE760/1013

VFR

°C / °C

[Más]
Viento 40º 6kt
Visibilidad >10km
Tiempo -
Nubes Clouds and Visibility OK
Presión 1014
Cambiar No Significant change. Runway 08: Frozen ridges, 26-50% contamination with 5mm, friction coefficient 0.48.
Bruto ULAA 040700Z 04003MPS CAVOK M20/M22 Q1014 R08/950548 NOSIG RMK QFE760/1013

TAF a 64.6°N 40.72°E (ULAA)

From till


From till Wind 40º 6kt. Visibility 10km or more. Scattered Clouds 1600ft.
Temporarly from till Wind 60º 6kt. Visibility 305.775m. freezing Fog . Few Clouds 300ft.
Becoming from till Wind 360º 6kt. Visibility 10km or more. Broken Clouds 1600ft.
Temporarly from till Visibility 498.895m. freezing Fog . Few Clouds 300ft. Broken Clouds 1600ft.

Bruto: TAF ULAA 041700Z 0418/0518 04003MPS 9999 SCT016 TEMPO 0418/0422 06003MPS 0300 FZFG FEW003 BECMG 0422/0424 36003MPS BKN016 TEMPO 0504/0508 0500 FZFG FEW003 BKN016

Radar y precipitación nowcast para 64.6°N 40.72°E

llovizna
Leve
Moderado
Fuerte
Muy fuerte
Granizo

El marcador de lugar se coloca en 64.6°N 40.72°E. Esta animación muestra lo radar de precipitaciones hasta la última hora, así como la 1h previsión. Las lloviznas o las nevadas ligeras pueden ser invisibles para el radar. La intensidad de la precipitación está codificada por colores, que van del azul claro al naranja.

Imágenes actuales de satélite y lluvia para 64.6°N 40.72°E

El marcador de lugar se coloca en 64.6°N 40.72°E. [Más]

La imagen de satélite en tiempo real se aprovecha de la combinación de bandas de la luz visible y de la luz infrarrojo. Como se puede detectar cambios de temperaturas atreves de la banda infrarrojo, la imagen no está escura de noche. No obstante, la niebla y las nubes bajas son apenas visibles en las imágenes infrarrojo como las diferencias de temperaturas entre el suelo y la niebla son muy pequeñas. Por eso son casi invisibles durante la noche. Las imágenes de satélite del Meteosat (Europa) son actualizados en tiempo real cada 5 minutos. Las imágenes del GOES-16/GOES-17 (América del Norte y América del Sur) y Himawari (Asia) son actualizados cada 10 minutos.

Copyright 2021 EUMETSAT / meteoblue. / Copyright 2021 meteoblue